Zurück zum Katalog

SL-8 DEB

AktivPO
NORAD 27738·DEBRIS·🇷🇺 Russia

Gestartet Dec 17, 1981 von Plesetsk Cosmodrome

Loading…

Nächste Überflüge (nächste 24 Stunden)

TLE

AktuellSource: Space-Track

Epoche: Sep 13, 2026, 15:29 UTC

1 27738U 81120K   26256.64562338  .00000043  00000-0  33048-3 0  9995
2 27738  82.9576 220.0236 0058029 109.0170  65.5176 12.15744497602487

Verfolge SL-8 DEB in Echtzeit mit AllMySat

Download on the App Store